Time,TemperatureF,DewpointF,PressureIn,WindDirection,WindDirectionDegrees,WindSpeedMPH,WindSpeedGustMPH,Humidity,HourlyPrecipIn,Conditions,Clouds,dailyrainin,SoftwareType,DateUTC
2013-08-22 00:12:00,58.0,33.0,30.24,SE,135,2.0,3.0,39,0.00,,,0.00,,2013-08-22 06:12:00,
2013-08-22 00:22:00,57.0,32.0,30.24,South,180,2.0,3.0,39,0.00,,,0.00,,2013-08-22 06:22:00,
2013-08-22 00:42:00,57.0,32.0,30.24,South,180,0.0,2.0,39,0.00,,,0.00,,2013-08-22 06:42:00,
2013-08-22 00:52:00,56.0,31.0,30.25,South,180,0.0,2.0,39,0.00,,,0.00,,2013-08-22 06:52:00,
2013-08-22 01:11:00,56.0,32.0,30.25,South,180,0.0,2.0,40,0.00,,,0.00,,2013-08-22 07:11:00,
2013-08-22 01:21:00,55.0,31.0,30.25,SE,135,2.0,2.0,40,0.00,,,0.00,,2013-08-22 07:21:00,
2013-08-22 01:42:00,55.0,31.0,30.25,SE,135,2.0,3.0,40,0.00,,,0.00,,2013-08-22 07:42:00,
2013-08-22 01:52:00,56.0,31.0,30.25,SE,135,1.0,3.0,39,0.00,,,0.00,,2013-08-22 07:52:00,
2013-08-22 02:12:00,55.0,31.0,30.24,South,180,2.0,2.0,39,0.00,,,0.00,,2013-08-22 08:12:00,
2013-08-22 02:22:00,55.0,31.0,30.25,South,180,2.0,3.0,40,0.00,,,0.00,,2013-08-22 08:22:00,
2013-08-22 02:43:00,55.0,32.0,30.25,SE,135,1.0,2.0,41,0.00,,,0.00,,2013-08-22 08:43:00,
2013-08-22 02:53:00,54.0,31.0,30.26,SE,135,2.0,3.0,42,0.00,,,0.00,,2013-08-22 08:53:00,
2013-08-22 03:11:00,54.0,32.0,30.25,SE,135,2.0,2.0,43,0.00,,,0.00,,2013-08-22 09:11:00,
2013-08-22 03:22:00,54.0,32.0,30.25,SE,135,2.0,3.0,43,0.00,,,0.00,,2013-08-22 09:22:00,
2013-08-22 03:43:00,54.0,32.0,30.25,SE,135,2.0,3.0,43,0.00,,,0.00,,2013-08-22 09:43:00,
2013-08-22 03:54:00,54.0,32.0,30.24,South,180,2.0,3.0,43,0.00,,,0.00,,2013-08-22 09:54:00,
2013-08-22 04:12:00,54.0,32.0,30.24,SE,135,0.0,2.0,43,0.00,,,0.00,,2013-08-22 10:12:00,
2013-08-22 04:22:00,53.0,32.0,30.25,South,180,3.0,4.0,44,0.00,,,0.00,,2013-08-22 10:22:00,
2013-08-22 04:31:00,52.0,32.0,30.25,SE,135,2.0,3.0,46,0.00,,,0.00,,2013-08-22 10:31:00,
2013-08-22 04:42:00,52.0,31.0,30.25,South,180,0.0,2.0,45,0.00,,,0.00,,2013-08-22 10:42:00,
2013-08-22 06:42:00,51.0,30.0,30.24,South,180,0.0,2.0,45,0.00,,,0.00,,2013-08-22 12:42:00,
2013-08-22 06:52:00,50.0,30.0,30.24,South,180,2.0,3.0,46,0.00,,,0.00,,2013-08-22 12:52:00,
2013-08-22 07:12:00,50.0,31.0,30.24,SE,135,2.0,3.0,47,0.00,,,0.00,,2013-08-22 13:12:00,
2013-08-22 07:22:00,50.0,31.0,30.24,South,180,2.0,2.0,48,0.00,,,0.00,,2013-08-22 13:22:00,
2013-08-22 07:42:00,50.0,32.0,30.24,South,180,2.0,3.0,49,0.00,,,0.00,,2013-08-22 13:42:00,
2013-08-22 08:11:00,50.0,33.0,30.25,South,180,4.0,4.0,51,0.00,,,0.00,,2013-08-22 14:11:00,
2013-08-22 08:22:00,51.0,34.0,30.25,SE,135,2.0,3.0,51,0.00,,,0.00,,2013-08-22 14:22:00,
2013-08-22 08:52:00,53.0,36.0,30.25,South,180,0.0,2.0,52,0.00,,,0.00,,2013-08-22 14:52:00,
2013-08-22 09:11:00,55.0,39.0,30.25,East,90,0.0,2.0,55,0.00,,,0.00,,2013-08-22 15:11:00,
2013-08-22 09:22:00,58.0,38.0,30.25,South,180,0.0,1.0,48,0.00,,,0.00,,2013-08-22 15:22:00,
2013-08-22 09:43:00,61.0,41.0,30.25,South,180,0.0,0.0,47,0.00,,,0.00,,2013-08-22 15:43:00,
2013-08-22 13:22:00,82.0,44.0,30.20,SW,225,2.0,7.0,26,0.00,,,0.00,,2013-08-22 19:22:00,
2013-08-22 13:42:00,81.0,42.0,30.20,West,270,2.0,7.0,25,0.00,,,0.00,,2013-08-22 19:42:00,
2013-08-22 13:53:00,82.0,45.0,30.19,North,0,3.0,8.0,27,0.00,,,0.00,,2013-08-22 19:53:00,
2013-08-22 14:11:00,82.0,44.0,30.18,North,0,2.0,8.0,26,0.00,,,0.00,,2013-08-22 20:11:00,
2013-08-22 14:23:00,82.0,45.0,30.17,NW,315,3.0,8.0,27,0.00,,,0.00,,2013-08-22 20:23:00,
2013-08-22 14:42:00,82.0,45.0,30.17,North,0,4.0,11.0,27,0.00,,,0.00,,2013-08-22 20:42:00,
2013-08-22 14:52:00,83.0,44.0,30.16,North,0,4.0,9.0,25,0.00,,,0.00,,2013-08-22 20:52:00,
2013-08-22 15:12:00,84.0,44.0,30.16,West,270,6.0,10.0,25,0.00,,,0.00,,2013-08-22 21:12:00,
2013-08-22 15:22:00,83.0,45.0,30.16,West,270,2.0,8.0,26,0.00,,,0.00,,2013-08-22 21:22:00,
2013-08-22 15:44:00,82.0,44.0,30.16,NW,315,2.0,6.0,26,0.00,,,0.00,,2013-08-22 21:44:00,
2013-08-22 15:54:00,82.0,46.0,30.16,NW,315,2.0,5.0,28,0.00,,,0.00,,2013-08-22 21:54:00,
2013-08-22 16:24:00,86.0,47.0,30.16,NE,45,1.0,5.0,26,0.00,,,0.00,,2013-08-22 22:24:00,
2013-08-22 16:53:00,85.0,48.0,30.14,West,270,2.0,4.0,28,0.00,,,0.00,,2013-08-22 22:53:00,
2013-08-22 17:11:00,85.0,48.0,30.13,South,180,2.0,4.0,28,0.00,,,0.00,,2013-08-22 23:11:00,
2013-08-22 17:22:00,84.0,47.0,30.13,NE,45,1.0,4.0,28,0.00,,,0.00,,2013-08-22 23:22:00,
2013-08-22 17:52:00,86.0,48.0,30.12,NW,315,2.0,6.0,27,0.00,,,0.00,,2013-08-22 23:52:00,
2013-08-22 18:11:00,85.0,47.0,30.11,East,90,1.0,4.0,27,0.00,,,0.00,,2013-08-23 00:11:00,
2013-08-22 18:23:00,84.0,46.0,30.11,NW,315,1.0,2.0,27,0.00,,,0.00,,2013-08-23 00:23:00,
2013-08-22 18:42:00,83.0,47.0,30.11,North,0,1.0,2.0,28,0.00,,,0.00,,2013-08-23 00:42:00,
2013-08-22 18:52:00,82.0,47.0,30.10,West,270,0.0,1.0,30,0.00,,,0.00,,2013-08-23 00:52:00,
2013-08-22 19:52:00,78.0,48.0,30.09,South,180,0.0,2.0,35,0.00,,,0.00,,2013-08-23 01:52:00,
2013-08-22 20:11:00,78.0,48.0,30.09,South,180,1.0,2.0,35,0.00,,,0.00,,2013-08-23 02:11:00,
2013-08-22 20:22:00,76.0,46.0,30.08,SE,135,2.0,2.0,35,0.00,,,0.00,,2013-08-23 02:22:00,
2013-08-22 20:42:00,75.0,49.0,30.09,SE,135,1.0,2.0,40,0.00,,,0.00,,2013-08-23 02:42:00,
2013-08-22 20:52:00,74.0,48.0,30.09,South,180,0.0,1.0,40,0.00,,,0.00,,2013-08-23 02:52:00,
2013-08-22 21:11:00,73.0,48.0,30.09,SE,135,1.0,2.0,41,0.00,,,0.00,,2013-08-23 03:11:00,
2013-08-22 21:22:00,72.0,46.0,30.09,South,180,0.0,1.0,39,0.00,,,0.00,,2013-08-23 03:22:00,
2013-08-22 21:44:00,71.0,45.0,30.09,South,180,1.0,2.0,39,0.00,,,0.00,,2013-08-23 03:44:00,
2013-08-22 21:55:00,70.0,44.0,30.09,SE,135,2.0,4.0,39,0.00,,,0.00,,2013-08-23 03:55:00,
2013-08-22 22:13:00,70.0,45.0,30.09,SE,135,2.0,3.0,41,0.00,,,0.00,,2013-08-23 04:13:00,
2013-08-22 22:24:00,69.0,43.0,30.09,SE,135,2.0,3.0,39,0.00,,,0.00,,2013-08-23 04:24:00,
2013-08-22 22:43:00,69.0,42.0,30.07,SE,135,2.0,4.0,37,0.00,,,0.00,,2013-08-23 04:43:00,
2013-08-22 22:54:00,69.0,43.0,30.07,South,180,0.0,2.0,39,0.00,,,0.00,,2013-08-23 04:54:00,
2013-08-22 23:13:00,68.0,42.0,30.08,SE,135,0.0,2.0,39,0.00,,,0.00,,2013-08-23 05:13:00,
2013-08-22 23:22:00,68.0,43.0,30.08,SW,225,0.0,2.0,41,0.00,,,0.00,,2013-08-23 05:22:00,
2013-08-22 23:42:00,67.0,42.0,30.07,SE,135,1.0,2.0,40,0.00,,,0.00,,2013-08-23 05:42:00,
2013-08-22 23:52:00,67.0,43.0,30.07,NW,315,0.0,2.0,42,0.00,,,0.00,,2013-08-23 05:52:00,